Left ArrowRight Arrow

39.51506, -84.39828

Hourly Observations for June 19, 2024

Temp ( °F °C ) Dew Point ( °F °C ) Humidity (%) Winds ( mph kmh ) Pressure ( in mb ) Visibility ( mi km ) Precip ( " mm )
12:15 am 00:15 Clear 74 23.3 N/A N/A Calm 30.15 1021 10 16 0.00 0.00
12:35 am 00:35 Clear 74 23.1 N/A N/A Calm 30.15 1021 10 16 0.00 0.00
12:55 am 00:55 Clear 74 23.2 N/A N/A Calm 30.16 1021 10 16 0.00 0.00
1:15 am 01:15 Clear 73 23 N/A N/A Calm 30.16 1021 10 16 0.00 0.00
1:35 am 01:35 Clear 73 22.5 N/A N/A Calm 30.17 1022 10 16 0.00 0.00
1:55 am 01:55 Clear 73 22.8 N/A N/A ENE 3 6 30.17 1022 10 16 0.00 0.00
2:15 am 02:15 Clear 73 22.6 N/A N/A N 3 6 30.17 1022 10 16 0.00 0.00
2:35 am 02:35 Clear 73 22.5 N/A N/A NNE 3 6 30.17 1022 10 16 0.00 0.00
2:55 am 02:55 Clear 73 22.7 N/A N/A NNE 3 6 30.16 1021 10 16 0.00 0.00
3:15 am 03:15 Clear 73 22.5 N/A N/A NNE 3 6 30.16 1021 10 16 0.00 0.00
3:35 am 03:35 Clear 72 22.3 N/A N/A Calm 30.16 1021 10 16 0.00 0.00
3:55 am 03:55 Clear 72 22.3 N/A N/A N 3 6 30.16 1021 10 16 0.00 0.00
4:15 am 04:15 Clear 72 22.1 N/A N/A Calm 30.17 1022 10 16 0.00 0.00
4:35 am 04:35 Clear 72 22.3 N/A N/A Calm 30.17 1022 10 16 0.00 0.00
4:55 am 04:55 Clear 72 22.4 N/A N/A Calm 30.18 1022 10 16 0.00 0.00
5:15 am 05:15 Clear 72 22 N/A N/A Calm 30.18 1022 10 16 0.00 0.00
5:35 am 05:35 Clear 72 22.2 N/A N/A Calm 30.19 1022 10 16 0.00 0.00
5:55 am 05:55 Clear 72 22 N/A N/A Calm 30.19 1022 10 16 0.00 0.00
6:15 am 06:15 Sunny 72 22 N/A N/A Calm 30.20 1023 7 11 0.00 0.00
6:35 am 06:35 Hazy 71 21.7 N/A N/A Calm 30.21 1023 5 8 0.00 0.00
6:55 am 06:55 Sunny 72 22.3 N/A N/A Calm 30.22 1023 7 11 0.00 0.00
7:15 am 07:15 Hazy 73 22.7 N/A N/A Calm 30.22 1023 7 11 0.00 0.00
7:35 am 07:35 Partly Cloudy with Mist and Fog 73 23 N/A N/A Calm 30.23 1024 2 3 0.00 0.00
7:55 am 07:55 Partly Cloudy 75 23.8 N/A N/A Calm 30.23 1024 10 16 0.00 0.00
8:15 am 08:15 Sunny 78 25.4 76 24.7 96 96 Calm 30.22 1023 7 11 0.00 0.00
8:35 am 08:35 Sunny 79 26.3 76 24.5 90 90 Calm 30.23 1024 10 16 0.00 0.00
8:55 am 08:55 Sunny 82 27.6 75 23.8 80 80 S 6 9 30.24 1024 10 16 0.00 0.00
9:15 am 09:15 Sunny 82 27.9 73 22.9 74 74 SW 5 7 30.24 1024 10 16 0.00 0.00
9:35 am 09:35 Sunny 82 27.9 71 21.4 68 68 SW 6 9 30.24 1024 10 16 0.00 0.00
9:55 am 09:55 Sunny 83 28.6 70 21.2 64 64 SW 7 11 30.23 1024 10 16 0.00 0.00
10:15 am 10:15 Sunny 84 28.7 70 21 63 63 SW 7 11 30.23 1024 10 16 0.00 0.00
10:35 am 10:35 Sunny 85 29.3 69 20.8 60 60 S 6 9 30.23 1024 10 16 0.00 0.00
10:55 am 10:55 Sunny 87 30.5 69 20.3 55 55 SSW 5 7 30.23 1024 10 16 0.00 0.00
11:15 am 11:15 Sunny 86 30.2 69 20.4 56 56 WSW 7 11 30.24 1024 10 16 0.00 0.00
11:35 am 11:35 Sunny 86 30.2 68 19.9 54 54 WSW 5 7 30.24 1024 10 16 0.00 0.00
11:55 am 11:55 Sunny 89 31.5 68 19.8 50 50 WSW 5 7 30.23 1024 7 11 0.00 0.00
12:15 pm 12:15 Sunny 88 31.3 67 19.7 50 50 WSW 7 11 30.23 1024 7 11 0.00 0.00
12:35 pm 12:35 Sunny 89 31.8 67 19.4 48 48 WSW 9 15 30.23 1024 10 16 0.00 0.00
12:55 pm 12:55 Sunny 90 32.3 68 19.8 48 48 WSW 5 7 30.23 1024 10 16 0.00 0.00
1:15 pm 13:15 Sunny 90 32.3 66 19 45 45 SW 3 6 30.23 1024 10 16 0.00 0.00
1:35 pm 13:35 Partly Cloudy 91 32.5 66 18.7 44 44 W 5 7 30.22 1023 10 16 0.00 0.00
1:55 pm 13:55 Mostly Cloudy 89 31.9 66 18.9 46 46 W 3 6 30.22 1023 10 16 0.00 0.00
2:15 pm 14:15 Cloudy 90 32.1 66 18.7 45 45 WSW 5 7 30.21 1023 10 16 0.00 0.00
2:35 pm 14:35 Cloudy 90 32.1 65 18.6 45 45 Calm 30.21 1023 10 16 0.00 0.00
2:55 pm 14:55 Cloudy 90 32.3 66 19.1 46 46 SSW 6 9 30.20 1023 10 16 0.00 0.00
3:15 pm 15:15 Mostly Cloudy 91 32.6 66 19 45 45 S 9 15 30.21 1023 10 16 0.00 0.00
3:35 pm 15:35 Partly Cloudy 91 32.5 66 18.7 44 44 SSE 6 9 30.21 1023 10 16 0.00 0.00
3:55 pm 15:55 Sunny 91 32.7 64 17.8 41 41 S 5 7 30.20 1023 10 16 0.00 0.00
4:15 pm 16:15 Sunny 92 33.3 67 19.6 45 45 SE 9 15 30.19 1022 10 16 0.00 0.00
4:35 pm 16:35 Sunny 92 33.1 68 20.1 47 47 ESE 8 13 30.19 1023 10 16 0.00 0.00
4:55 pm 16:55 Partly Cloudy 91 32.7 67 19.6 46 46 ESE 5 7 30.20 1023 10 16 0.00 0.00
5:15 pm 17:15 Sunny 90 32.1 67 19.2 47 47 S 8 13 30.19 1022 10 16 0.00 0.00
5:35 pm 17:35 Sunny 91 32.9 65 18.6 43 43 SSE 7 11 30.19 1022 10 16 0.00 0.00
5:55 pm 17:55 Sunny 91 32.6 64 17.9 42 42 S 7 11 30.19 1022 10 16 0.00 0.00
6:15 pm 18:15 Partly Cloudy 90 32.2 65 18.3 44 44 SSE 8 13 30.19 1022 10 16 0.00 0.00
6:35 pm 18:35 Partly Cloudy 89 31.8 68 20.2 50 50 SE 10 17 30.19 1022 10 16 0.00 0.00
6:55 pm 18:55 Partly Cloudy 89 31.7 69 20.4 51 51 SE 8 13 30.19 1022 10 16 0.00 0.00
7:15 pm 19:15 Partly Cloudy 89 31.4 69 20.3 52 52 SSE 7 11 30.19 1022 10 16 0.00 0.00
7:35 pm 19:35 Mostly Cloudy 89 31.4 67 19.6 50 50 SSE 8 13 30.19 1022 10 16 0.00 0.00
7:55 pm 19:55 Partly Cloudy 88 30.9 69 20.7 55 55 S 9 15 30.18 1022 7 11 0.00 0.00
8:15 pm 20:15 Hazy 87 30.5 70 21.2 58 58 S 9 15 30.19 1022 7 11 0.00 0.00
8:35 pm 20:35 Mostly Cloudy 87 30.4 71 21.5 59 59 SSW 9 15 30.19 1022 10 16 0.00 0.00
8:55 pm 20:55 Partly Cloudy 86 29.9 71 21.6 61 61 SSW 8 13 30.20 1023 10 16 0.00 0.00
9:15 pm 21:15 Partly Cloudy 84 28.7 72 22.1 68 68 WSW 6 9 30.21 1023 10 16 0.00 0.00
9:35 pm 21:35 Clear 83 28.1 72 22.3 71 71 SW 6 9 30.22 1023 10 16 0.00 0.00
9:55 pm 21:55 Clear 83 28.2 71 21.8 68 68 SW 3 6 30.22 1023 10 16 0.00 0.00
10:15 pm 22:15 Clear 83 28.5 71 21.7 67 67 S 5 7 30.23 1024 10 16 0.00 0.00
10:35 pm 22:35 Mostly Cloudy 84 28.9 70 21.2 63 63 S 8 13 30.23 1024 10 16 0.00 0.00
10:55 pm 22:55 Cloudy 83 28.6 70 21.2 64 64 SSW 9 15 30.23 1024 10 16 0.00 0.00
11:15 pm 23:15 Cloudy 83 28.3 70 21 65 65 S 6 9 30.24 1024 10 16 0.00 0.00
11:35 pm 23:35 Mostly Cloudy 83 28.1 69 20.7 64 64 S 7 11 30.24 1024 10 16 0.00 0.00
11:55 pm 23:55 Partly Cloudy 82 27.8 69 20.6 65 65 S 7 11 30.24 1024 10 16 0.00 0.00

Powered by Vaisala Xweather